When you browse on this site, cookies collect data to enhance your experience and personalize the content and advertising you see.
Visit our Privacy Policy to learn more. By continuing to use the site, you agree to this use of cookies and data.
  • In Germany
  • List of Countries
  • For 7 days
  • Water Temperature
  • Weather Map
  • Weather Widgets
  • user-avatar
    Login

    Hourly Weather Mayrhofen

    Today, 25 August, Sunday

    Time Temperature Precipitation Wind Pressure Humidity
    00:00 +11°C° 0 mm 1 mps 621 mmHg 89%
    01:00 +10°C° 0 mm 1 mps 621 mmHg 90%
    02:00 +10°C° 0 mm 1 mps 621 mmHg 89%
    03:00 +10°C° 0 mm 1 mps 621 mmHg 89%
    04:00 +10°C° 0 mm 1 mps 621 mmHg 89%
    05:00 +11°C° 0 mm 1 mps 621 mmHg 87%
    06:00 +12°C° 0 mm 1 mps 622 mmHg 84%
    07:00 +12°C° 0 mm 0 mps 622 mmHg 81%
    08:00 +14°C° 0.3 mm 0 mps 623 mmHg 76%
    09:00 +18°C° 0.3 mm 1 mps 624 mmHg 72%
    10:00 +19°C° 0.3 mm 1 mps 624 mmHg 67%
    11:00 +19°C° 1.3 mm 1 mps 624 mmHg 68%
    12:00 +20°C° 1.3 mm 1 mps 624 mmHg 69%
    13:00 +20°C° 1.3 mm 1 mps 624 mmHg 70%
    14:00 +19°C° 1.4 mm 1 mps 623 mmHg 75%
    15:00 +18°C° 1.4 mm 1 mps 623 mmHg 80%
    16:00 +16°C° 1.4 mm 1 mps 623 mmHg 84%
    17:00 +15°C° 0.7 mm 1 mps 622 mmHg 86%
    18:00 +14°C° 0.7 mm 1 mps 622 mmHg 88%
    19:00 +13°C° 0.7 mm 1 mps 621 mmHg 90%
    20:00 +12°C° 0.1 mm 1 mps 621 mmHg 90%
    21:00 +11°C° 0.1 mm 1 mps 621 mmHg 89%
    22:00 +11°C° 0.1 mm 1 mps 621 mmHg 89%
    23:00 +10°C° 0 mm 1 mps 621 mmHg 89%

    Tomorrow, 26 August, Monday

    Time Temperature Precipitation Wind Pressure Humidity
    00:00 +9°C° 0 mm 0 mps 621 mmHg 89%
    01:00 +9°C° 0 mm 0 mps 621 mmHg 89%
    02:00 +8°C° 0 mm 0 mps 621 mmHg 89%
    03:00 +8°C° 0 mm 0 mps 620 mmHg 89%
    04:00 +8°C° 0 mm 0 mps 620 mmHg 89%
    05:00 +9°C° 0 mm 0 mps 621 mmHg 86%
    06:00 +11°C° 0 mm 0 mps 621 mmHg 83%
    07:00 +12°C° 0 mm 0 mps 622 mmHg 80%
    08:00 +15°C° 0 mm 1 mps 623 mmHg 73%
    09:00 +18°C° 0 mm 1 mps 623 mmHg 66%
    10:00 +20°C° 0 mm 1 mps 624 mmHg 58%
    11:00 +21°C° 1 mm 1 mps 624 mmHg 59%
    12:00 +21°C° 1 mm 1 mps 624 mmHg 61%
    13:00 +21°C° 1 mm 1 mps 624 mmHg 62%
    14:00 +21°C° 2 mm 1 mps 623 mmHg 65%
    15:00 +20°C° 2 mm 1 mps 623 mmHg 68%
    16:00 +20°C° 2 mm 1 mps 623 mmHg 71%
    17:00 +18°C° 1.4 mm 1 mps 622 mmHg 77%
    18:00 +14°C° 1.4 mm 0 mps 622 mmHg 82%
    19:00 +13°C° 1.4 mm 0 mps 621 mmHg 88%
    20:00 +12°C° 0.2 mm 0 mps 621 mmHg 88%
    21:00 +11°C° 0.2 mm 0 mps 621 mmHg 88%
    22:00 +11°C° 0.2 mm 1 mps 621 mmHg 88%
    23:00 +11°C° 0 mm 1 mps 621 mmHg 88%

    Day after tomorrow, 27 August, Tuesday

    Time Temperature Precipitation Wind Pressure Humidity
    00:00 +11°C° 0 mm 1 mps 620 mmHg 88%
    01:00 +10°C° 0 mm 1 mps 620 mmHg 88%
    02:00 +10°C° 0 mm 1 mps 620 mmHg 89%
    03:00 +10°C° 0 mm 1 mps 620 mmHg 89%
    04:00 +9°C° 0 mm 1 mps 620 mmHg 89%
    05:00 +11°C° 0 mm 1 mps 621 mmHg 87%
    06:00 +12°C° 0 mm 1 mps 621 mmHg 84%
    07:00 +14°C° 0 mm 1 mps 622 mmHg 82%
    08:00 +16°C° 0 mm 1 mps 623 mmHg 73%
    09:00 +19°C° 0 mm 1 mps 624 mmHg 63%
    10:00 +19°C° 0 mm 0 mps 625 mmHg 54%
    11:00 +22°C° 0 mm 1 mps 625 mmHg 49%
    12:00 +23°C° 0 mm 1 mps 625 mmHg 45%
    13:00 +24°C° 0 mm 1 mps 625 mmHg 40%
    14:00 +23°C° 0.1 mm 1 mps 625 mmHg 44%
    15:00 +23°C° 0.1 mm 1 mps 624 mmHg 47%
    16:00 +22°C° 0.1 mm 1 mps 624 mmHg 50%
    17:00 +20°C° 0.2 mm 1 mps 623 mmHg 62%
    18:00 +16°C° 0.2 mm 1 mps 622 mmHg 73%
    19:00 +13°C° 0.2 mm 0 mps 621 mmHg 85%
    20:00 +13°C° 0 mm 1 mps 621 mmHg 85%
    21:00 +13°C° 0 mm 1 mps 621 mmHg 86%
    22:00 +12°C° 0 mm 1 mps 621 mmHg 87%
    23:00 +12°C° 0 mm 1 mps 621 mmHg 87%

    28 August, Wednesday

    Time Temperature Precipitation Wind Pressure Humidity
    00:00 +12°C° 0 mm 1 mps 621 mmHg 87%
    01:00 +12°C° 0 mm 1 mps 621 mmHg 87%
    02:00 +11°C° 0 mm 1 mps 620 mmHg 88%
    03:00 +11°C° 0 mm 1 mps 620 mmHg 88%
    04:00 +11°C° 0 mm 1 mps 620 mmHg 88%
    05:00 +12°C° 0 mm 1 mps 620 mmHg 87%
    06:00 +13°C° 0 mm 1 mps 621 mmHg 85%
    07:00 +14°C° 0 mm 1 mps 621 mmHg 84%
    08:00 +16°C° 0 mm 1 mps 622 mmHg 76%
    09:00 +19°C° 0 mm 1 mps 622 mmHg 69%
    10:00 +21°C° 0 mm 1 mps 623 mmHg 61%
    11:00 +22°C° 0.1 mm 1 mps 623 mmHg 57%
    12:00 +23°C° 0.1 mm 1 mps 623 mmHg 52%
    13:00 +24°C° 0.1 mm 1 mps 623 mmHg 47%
    14:00 +23°C° 0.4 mm 1 mps 623 mmHg 51%
    15:00 +21°C° 0.4 mm 2 mps 622 mmHg 56%
    16:00 +20°C° 0.4 mm 2 mps 622 mmHg 60%
    17:00 +19°C° 0.7 mm 1 mps 621 mmHg 69%
    18:00 +16°C° 0.7 mm 1 mps 620 mmHg 78%
    19:00 +14°C° 0.7 mm 1 mps 620 mmHg 88%
    20:00 +13°C° 0.3 mm 1 mps 620 mmHg 88%
    21:00 +13°C° 0.3 mm 1 mps 619 mmHg 89%
    22:00 +12°C° 0.3 mm 1 mps 619 mmHg 89%
    23:00 +12°C° 0 mm 1 mps 619 mmHg 90%

    29 August, Thursday

    Time Temperature Precipitation Wind Pressure Humidity
    00:00 +12°C° 0 mm 1 mps 619 mmHg 90%
    01:00 +11°C° 0 mm 1 mps 619 mmHg 90%
    02:00 +11°C° 0 mm 1 mps 619 mmHg 90%
    03:00 +10°C° 0 mm 1 mps 619 mmHg 90%
    04:00 +10°C° 0 mm 1 mps 618 mmHg 90%
    05:00 +11°C° 0 mm 1 mps 619 mmHg 88%
    06:00 +12°C° 0 mm 0 mps 620 mmHg 85%
    07:00 +13°C° 0 mm 0 mps 620 mmHg 83%
    08:00 +14°C° 0.2 mm 0 mps 621 mmHg 77%
    09:00 +18°C° 0.2 mm 1 mps 621 mmHg 72%
    10:00 +19°C° 0.2 mm 1 mps 622 mmHg 66%
    11:00 +20°C° 0.9 mm 1 mps 622 mmHg 67%
    12:00 +20°C° 0.9 mm 1 mps 622 mmHg 68%
    13:00 +20°C° 0.9 mm 1 mps 622 mmHg 69%
    14:00 +19°C° 1.2 mm 1 mps 622 mmHg 72%
    15:00 +18°C° 1.2 mm 2 mps 622 mmHg 75%
    16:00 +17°C° 1.2 mm 2 mps 621 mmHg 78%
    17:00 +16°C° 1.1 mm 2 mps 621 mmHg 83%
    18:00 +15°C° 1.1 mm 1 mps 621 mmHg 88%
    19:00 +13°C° 1.1 mm 1 mps 621 mmHg 94%
    20:00 +13°C° 0.7 mm 1 mps 621 mmHg 94%
    21:00 +13°C° 0.7 mm 1 mps 621 mmHg 95%
    22:00 +12°C° 0.7 mm 1 mps 621 mmHg 95%
    23:00 +12°C° 0.2 mm 1 mps 621 mmHg 95%

    30 August, Friday

    Time Temperature Precipitation Wind Pressure Humidity
    00:00 +12°C° 0.2 mm 1 mps 621 mmHg 94%
    01:00 +10°C° 0.2 mm 0 mps 621 mmHg 93%
    02:00 +11°C° 0 mm 1 mps 621 mmHg 93%
    03:00 +11°C° 0 mm 1 mps 621 mmHg 93%
    04:00 +11°C° 0 mm 1 mps 621 mmHg 94%
    05:00 +11°C° 0 mm 1 mps 621 mmHg 93%
    06:00 +12°C° 0 mm 1 mps 622 mmHg 93%
    07:00 +11°C° 0 mm 0 mps 622 mmHg 92%
    08:00 +13°C° 0.1 mm 1 mps 622 mmHg 87%
    09:00 +15°C° 0.1 mm 1 mps 623 mmHg 82%
    10:00 +16°C° 0.1 mm 1 mps 623 mmHg 76%
    11:00 +18°C° 0.6 mm 1 mps 624 mmHg 72%
    12:00 +19°C° 0.6 mm 1 mps 624 mmHg 69%
    13:00 +20°C° 0.6 mm 1 mps 624 mmHg 65%
    14:00 +19°C° 1.1 mm 1 mps 623 mmHg 70%
    15:00 +19°C° 1.1 mm 1 mps 623 mmHg 74%
    16:00 +18°C° 1.1 mm 1 mps 623 mmHg 79%
    17:00 +15°C° 0.6 mm 1 mps 622 mmHg 85%
    18:00 +14°C° 0.6 mm 1 mps 622 mmHg 90%
    19:00 +11°C° 0.6 mm 0 mps 621 mmHg 95%
    20:00 +11°C° 0.1 mm 0 mps 621 mmHg 95%
    21:00 +10°C° 0.1 mm 0 mps 621 mmHg 95%
    22:00 +10°C° 0.1 mm 0 mps 621 mmHg 94%
    23:00 +10°C° 0 mm 0 mps 621 mmHg 94%
    Show more